Theta_e
296 296 295 294 295 296 295 295 295 295 294 294 293 293 293 293 293 293 293 293 294 293 293 293 293 293 294 294 294 293 293 292 291 292 292 291 291 290 290 289 289 287
294 294 294 295 295 294 295 296 295 295 295 294 294 294 293 292 292 293 292 292 292 292 292 292 292 292 292 292 293 291 290 290 290 292 290 290 289 289 288 288 287 287
293 293 293 293 294 294 294 295 295 295 295 295 294 293 292 292 291 292 292 292 291 291 291 292 291 291 291 291 291 290 289 289 289 289 289 288 288 287 287 287 286 287
292 292 292 293 294 294 295 294 295 294 294 294 293 293 292 292 291 291 291 290 290 290 290 290 290 290 290 290 290 289 289 288 288 288 287 287 287 286 286 286 286 285
292 292 292 292 293 294 294 294 294 294 293 293 292 291 290 290 290 289 289 290 290 289 289 289 289 289 289 289 289 288 288 287 287 287 286 285 286 286 285 285 284 284
292 291 291 292 293 293 293 293 293 293 293 292 291 290 290 290 289 289 289 289 289 288 288 288 288 288 288 288 288 287 286 286 286 286 285 284 284 285 285 284 283 283
291 291 290 291 292 293 292 293 293 293 292 292 290 289 289 289 289 289 288 288 288 288 288 287 287 287 287 287 286 285 285 284 284 284 283 283 283 282 283 283 282 282
291 291 291 291 291 291 291 292 292 292 292 290 289 289 289 289 288 289 288 288 288 287 287 287 287 286 286 286 285 284 283 284 283 283 282 282 281 281 281 283 282 281
291 290 290 290 290 290 290 291 291 291 291 289 289 289 289 289 288 288 288 287 287 287 287 286 286 285 285 285 284 283 282 283 283 282 282 281 280 280 280 281 281 280
291 290 290 289 289 289 289 290 290 290 290 289 289 288 288 289 288 288 287 287 286 286 286 285 285 284 284 284 284 282 282 282 281 281 281 281 281 280 280 280 280 280
291 290 289 289 289 289 289 290 289 289 289 289 288 288 288 288 287 287 287 286 286 285 285 285 284 283 283 283 283 282 282 281 281 281 281 281 281 280 281 280 280 280
290 289 288 288 288 288 289 289 289 289 288 288 288 287 287 287 286 286 286 285 285 285 285 284 284 283 283 282 282 282 281 281 280 280 281 281 281 280 280 280 280 280
289 288 288 288 288 288 289 289 289 288 288 287 287 287 286 286 286 285 285 285 285 284 284 283 283 283 283 282 281 281 281 280 280 280 280 281 280 280 280 280 280 280
289 288 288 288 288 288 288 288 288 287 287 287 287 286 285 285 285 285 284 284 284 283 283 283 282 282 282 282 281 280 280 280 280 280 280 280 279 279 280 280 280 280
289 288 288 288 288 288 287 288 287 287 287 287 286 286 286 285 285 284 284 283 283 282 282 282 282 281 281 281 280 279 280 280 280 279 279 279 279 279 279 279 280 280
288 288 288 288 288 287 287 287 286 286 286 285 285 285 285 284 284 283 283 282 282 282 281 281 281 281 282 283 283 280 280 280 280 279 279 279 279 279 278 279 279 279
288 288 288 287 287 287 287 286 286 286 285 285 285 284 284 284 283 282 282 282 281 281 281 280 280 280 283 285 285 284 281 280 279 279 279 279 279 279 278 278 278 279
289 288 287 287 287 286 286 286 286 285 285 285 284 284 284 283 282 282 282 282 281 281 280 280 279 282 284 285 285 285 284 280 280 279 279 279 279 279 279 279 278 278
290 288 287 287 287 286 286 286 285 285 284 284 284 284 283 282 282 282 281 281 281 280 280 280 279 284 285 285 285 285 285 282 280 280 279 279 279 279 279 279 278 278
290 289 287 287 287 286 286 285 285 285 285 285 284 284 283 282 282 281 281 280 280 280 280 280 279 283 285 285 286 286 285 283 280 280 280 279 279 279 279 279 278 278
290 289 288 287 286 286 286 285 285 285 285 284 284 283 283 282 281 281 281 280 280 279 279 279 278 283 285 285 285 286 285 283 280 280 280 279 279 279 279 279 279 278
289 289 288 287 286 286 285 285 285 284 284 284 284 283 284 284 283 282 281 280 280 279 279 278 278 283 284 285 286 286 286 282 280 280 279 279 279 279 279 279 278 278
290 288 288 287 286 285 285 285 284 284 284 284 283 283 282 282 282 281 281 280 280 279 278 278 278 282 284 285 285 286 285 282 280 279 279 278 278 279 278 278 278 278
290 288 287 286 285 285 285 285 285 284 284 284 283 282 282 282 281 281 281 280 279 278 278 278 278 280 284 285 285 286 285 283 281 279 278 278 278 278 278 277 278 279
289 288 287 286 285 285 285 284 284 284 284 284 283 283 282 282 281 281 280 280 280 279 280 279 279 280 284 285 285 286 285 283 282 280 279 278 277 277 277 277 277 278
288 287 286 286 285 285 285 285 285 284 284 283 283 283 282 282 281 281 280 280 279 279 279 279 279 279 282 284 285 285 286 284 282 280 279 278 278 278 277 277 277 277
Wind_Speed
5 4 5 4 4 4 6 7 7 7 7 6 6 7 7 6 7 6 6 6 5 6 6 6 6 6 5 6 5 6 5 5 5 4 5 5 5 5 5 5 5 5
7 6 5 5 4 5 7 6 6 7 7 7 6 6 6 8 7 6 6 6 6 6 7 7 6 7 6 6 5 6 6 5 6 3 6 6 5 6 6 6 6 5
7 8 8 8 8 8 8 5 5 6 6 6 6 6 6 7 7 6 6 7 7 7 6 6 7 6 6 6 6 6 6 6 6 5 6 5 4 6 5 5 5 5
7 8 9 9 8 8 7 5 6 5 6 5 6 6 6 6 7 7 6 6 6 6 6 6 6 6 6 7 6 6 7 6 5 6 6 5 4 5 5 5 5 5
9 7 5 7 6 6 5 6 6 6 7 7 7 7 7 8 8 7 7 6 6 7 7 7 6 7 7 6 6 7 6 6 5 5 6 5 4 4 4 5 5 5
7 6 6 6 7 6 7 7 8 7 8 8 8 7 7 9 9 9 8 8 7 7 8 7 7 7 6 7 7 6 7 6 5 5 6 6 5 4 3 4 5 5
9 8 9 9 8 8 7 7 7 7 7 7 7 8 8 9 9 9 9 8 8 8 8 8 8 8 6 7 7 7 6 7 7 6 7 6 6 6 4 5 5 5
10 9 10 10 11 10 8 7 7 7 7 8 7 8 9 9 10 9 8 9 9 9 8 8 8 8 8 7 8 8 7 6 6 7 7 7 7 7 6 4 5 6
10 10 10 10 11 10 9 9 8 8 7 9 9 8 7 8 9 10 10 10 9 9 9 9 8 8 8 7 8 9 9 7 7 7 7 8 7 7 7 6 6 6
11 10 12 12 12 10 12 10 9 8 8 9 8 8 9 7 8 10 10 10 10 10 10 9 9 8 8 7 9 9 9 9 8 7 6 7 7 7 7 6 6 6
11 12 12 13 11 9 12 11 10 9 9 10 9 9 8 8 8 9 10 10 10 11 10 10 10 9 8 7 6 7 8 9 8 7 7 6 6 6 6 6 5 5
12 12 13 13 12 10 12 11 11 10 10 9 10 10 9 9 10 10 10 11 10 10 10 9 9 9 8 8 8 8 7 7 7 7 6 6 5 5 6 5 5 4
12 13 12 12 12 11 11 11 10 10 11 11 10 10 11 10 10 10 9 10 11 10 10 10 10 9 8 8 9 9 9 8 8 7 6 5 5 5 5 4 3 3
11 10 12 12 11 10 11 11 10 10 11 10 10 12 11 11 12 11 10 9 10 10 10 10 10 10 9 9 9 9 9 9 8 8 7 6 5 5 5 5 4 3
9 10 10 12 12 11 11 12 11 11 11 10 11 10 9 11 10 11 12 11 10 10 10 9 10 10 9 10 9 8 9 9 9 8 8 7 6 5 4 5 4 4
10 11 11 12 13 13 11 12 11 11 11 11 12 11 11 10 10 10 12 13 12 11 9 9 9 7 10 15 11 11 10 8 7 8 8 7 7 6 5 5 5 4
11 12 13 14 14 13 12 12 11 10 10 11 12 12 12 11 11 13 13 11 12 12 11 9 9 8 14 15 16 14 10 9 9 8 7 7 7 7 7 6 5 5
13 13 14 14 13 14 13 11 11 10 11 13 13 11 11 11 12 13 13 12 11 12 12 10 10 10 16 16 16 16 12 9 8 7 7 7 7 7 6 6 6 6
14 14 14 13 13 11 10 10 12 11 11 12 13 12 10 13 13 12 13 11 11 12 11 10 9 14 18 18 18 17 16 10 6 8 7 8 8 7 7 7 7 6
15 14 13 12 11 11 12 11 12 13 11 11 11 10 11 12 12 13 11 11 10 11 11 9 9 13 19 19 17 16 15 11 7 8 8 8 8 8 7 7 7 7
15 15 13 12 12 12 11 12 12 11 10 10 11 11 11 12 11 10 9 9 10 9 8 8 8 15 17 17 16 17 17 11 5 5 5 7 7 7 8 8 8 7
14 15 13 12 12 12 12 13 12 11 12 10 9 8 4 5 7 7 8 9 9 10 10 10 7 16 17 18 19 18 18 7 6 6 6 8 8 8 7 7 7 7
14 14 13 13 13 13 13 13 12 11 10 8 9 9 11 11 10 9 8 8 9 8 8 8 7 14 18 19 18 19 14 6 7 6 6 7 9 8 7 7 8 8
14 12 12 12 12 13 13 10 9 8 9 9 11 11 12 11 9 8 8 8 10 11 10 10 8 12 18 18 18 19 13 9 7 7 8 8 7 6 6 7 8 11
10 11 11 11 12 11 10 11 11 11 10 9 9 9 10 9 9 9 8 7 8 8 10 9 6 9 16 17 18 19 13 7 6 6 6 8 8 7 7 6 7 8
10 11 11 12 12 10 10 11 9 9 10 10 9 9 8 8 8 8 9 8 7 8 7 8 7 7 12 18 18 19 18 10 6 8 10 10 8 7 7 7 7 7
Wind_Direction
152 159 158 161 183 192 186 182 174 170 178 169 168 163 155 134 136 143 131 127 121 117 116 121 123 124 123 123 123 117 112 112 102 100 98 98 97 98 94 86 83 91
158 157 161 176 191 193 197 192 177 172 174 168 162 142 127 126 133 132 130 126 121 122 127 129 131 130 132 125 121 116 111 105 97 86 99 98 102 97 94 91 91 92
161 164 174 185 195 194 192 183 173 172 162 153 129 128 125 128 130 129 129 134 133 133 131 129 127 126 122 120 120 115 115 112 110 109 108 112 116 111 107 101 93 88
162 168 177 188 191 191 190 176 173 162 145 137 145 127 129 128 130 132 132 137 134 132 128 127 129 124 124 127 121 109 115 114 116 117 113 105 101 111 108 102 98 93
174 171 168 182 190 180 179 179 174 167 156 148 127 132 137 137 135 138 146 143 140 136 135 133 129 129 132 128 125 122 121 115 120 122 119 115 111 106 104 107 112 115
172 168 167 178 191 185 182 187 179 166 155 144 146 144 151 145 145 151 153 147 145 140 140 137 138 136 139 131 127 128 128 128 131 130 124 127 124 112 114 123 130 134
170 164 175 182 188 193 186 184 181 167 158 148 137 154 154 155 153 153 152 149 145 148 148 148 145 146 141 140 136 135 129 128 137 136 135 132 133 129 133 141 145 142
174 171 181 183 191 192 188 183 179 169 156 144 156 158 165 159 155 153 153 150 149 150 149 148 148 147 148 149 145 139 125 136 145 149 147 142 145 146 153 154 151 147
172 176 180 186 188 188 189 182 178 165 156 161 163 159 167 164 156 154 153 152 152 154 154 153 153 153 156 155 151 145 139 146 155 153 154 154 154 157 157 157 154 152
184 179 182 185 190 190 188 184 176 168 162 165 163 162 165 162 158 156 154 157 156 159 159 157 159 157 159 161 155 150 149 153 153 152 153 157 157 159 159 161 163 157
188 185 186 188 186 181 186 182 177 167 165 170 162 163 167 158 159 161 158 161 164 165 163 163 162 159 159 157 147 144 146 149 153 152 156 158 159 154 156 162 166 168
191 189 192 189 185 184 185 182 175 171 166 172 168 166 165 169 164 167 170 168 166 164 163 160 159 158 160 153 144 142 143 147 152 160 157 154 156 154 156 166 167 174
190 195 189 193 193 189 184 184 177 171 167 172 171 169 171 167 170 166 174 169 166 163 164 160 158 156 155 153 151 152 151 150 155 161 161 154 144 140 149 160 167 176
182 179 188 194 195 190 188 185 178 175 172 173 170 174 175 171 171 170 169 171 170 168 166 162 161 163 162 157 154 154 153 155 158 160 157 149 141 148 157 165 172 180
171 174 180 189 191 194 192 188 183 177 175 174 176 177 174 174 171 169 166 168 168 168 165 166 170 173 172 164 150 150 157 157 160 161 159 157 156 154 160 163 172 173
177 182 187 188 192 195 191 186 183 181 178 178 176 172 172 173 168 168 173 172 165 169 170 171 178 176 172 165 162 162 163 157 154 163 166 167 165 164 163 168 178 172
180 184 189 195 198 196 193 190 190 184 178 174 178 179 179 177 172 174 181 175 173 174 176 180 177 173 169 168 166 158 156 162 168 166 166 168 172 176 172 172 175 181
185 180 188 197 195 196 191 186 183 182 184 180 180 179 179 174 181 187 183 179 180 181 183 181 181 172 170 169 166 165 164 164 165 165 166 173 179 182 176 172 173 174
189 190 193 193 197 195 190 184 185 185 189 185 187 184 171 182 188 183 189 186 179 180 182 179 178 167 172 173 174 172 166 154 163 164 169 181 186 188 188 176 170 173
193 193 193 195 193 193 193 193 188 193 191 181 179 182 188 188 186 187 182 183 181 182 186 183 180 175 176 177 177 170 162 156 163 169 176 184 188 190 185 180 177 178
193 194 195 193 192 192 192 196 195 193 184 182 183 186 186 186 185 185 188 188 187 181 180 181 186 179 177 173 172 173 173 166 161 163 176 186 193 192 191 189 189 186
194 195 194 192 189 189 192 196 195 190 185 180 179 180 140 159 184 185 186 184 184 183 184 186 176 176 178 176 175 175 172 160 166 179 188 193 196 196 188 190 191 193
195 195 193 189 188 187 191 192 190 185 184 177 177 180 180 185 187 186 184 185 184 181 182 183 176 181 183 180 177 175 168 158 170 186 198 202 207 192 183 189 198 198
196 191 191 188 185 190 189 186 181 181 183 178 181 180 188 190 185 183 184 188 185 186 186 183 182 183 183 179 177 176 169 170 177 186 203 197 198 191 182 198 206 203
187 185 185 183 185 187 179 177 180 184 183 180 189 188 190 184 184 182 179 180 183 183 181 182 171 175 181 179 178 179 173 176 170 181 185 206 205 208 201 202 208 200
181 178 177 178 181 175 176 181 179 180 184 183 185 188 183 182 182 182 181 183 174 173 173 175 170 171 182 182 182 185 185 180 177 182 206 209 205 197 203 211 206 206